Home > Weather > Ganja > Past weeks

Flag for Azerbaijan Weather for the Past 2 Weeks in Ganja, Azerbaijan

Now
39 °F

Passing clouds.


Feels Like: 34 °F
Forecast: 41 / 65 °F
Wind: 7 mph from Southwest

Location: Gyanca Airport

Current Time: Feb 14, 2016 at 11:54:49 PM

Latest Report: Feb 14, 2016 at 11:30 PM


Visibility: 5 mi

Pressure: 30.04 "Hg

Humidity: 87%

Dew point: 36 °F

Location of GanjaLocation

Historic Weather in Ganja — Graph

°F

Ganja Temperature Yesterday

Maximum temperature yesterday: 52 °F (at 2:30 PM)
Minimum temperature yesterday: 30 °F (at 3:00 AM)
Average temperature yesterday: 41 °F

High & Low Weather Summary for the Past Weeks

 TemperatureHumidityPressure
High68 °F (Feb 6, 4:00 PM)100% (Feb 7, 2:30 AM)30.54 "Hg (Feb 7, 2:30 AM)
Low28 °F (Feb 12, 4:00 AM)16% (Feb 6, 4:00 PM)29.74 "Hg (Feb 6, 5:00 PM)
Average41 °F69%30.19 "Hg
* Reported Jan 30 10:00 PM — Feb 14 10:30 PM, Ganja, Weather by CustomWeather, © 2016

Note: Actual official high and low records may vary slightly from our data, if they occured in-between our weather recording intervals... More about our weather records

Advertising

Ganja Weather History for the Previous 24 Hours

 ConditionsComfort  
Time TempWeatherWind HumidityBarometerVisibility
10:30 PM
Sun, Feb 14
39 °FFog.5 mph87%30.04 "Hg3 mi
10:00 PM41 °FFog.5 mph87%30.04 "Hg3 mi
9:30 PM41 °FFog.6 mph87%30.04 "Hg3 mi
9:00 PM41 °FFog.5 mph87%30.04 "Hg3 mi
8:30 PM43 °FPassing clouds.3 mph81%30.04 "Hg4 mi
8:00 PM43 °FPassing clouds.No wind87%30.01 "HgN/A
7:00 PM48 °FScattered clouds.No wind66%30.01 "HgN/A
6:30 PM48 °FScattered clouds.No wind66%30.01 "HgN/A
6:00 PM52 °FScattered clouds.No wind58%30.01 "HgN/A
5:30 PM54 °FScattered clouds.No wind54%30.01 "HgN/A
5:00 PM54 °FScattered clouds.No wind54%30.01 "HgN/A
4:30 PM54 °FScattered clouds.No wind54%30.01 "HgN/A
4:00 PM54 °FScattered clouds.No wind54%30.01 "HgN/A
3:00 PM52 °FScattered clouds.3 mph58%30.01 "HgN/A
2:30 PM52 °FScattered clouds.2 mph54%30.01 "Hg5 mi
2:00 PM50 °FPartly sunny.2 mph58%30.04 "Hg4 mi
1:30 PM48 °FCool.N/A62%30.04 "HgN/A
1:00 PM46 °FPartly sunny.5 mph71%30.07 "Hg4 mi
12:30 PM46 °FPartly sunny.5 mph71%30.07 "Hg4 mi
11:30 AM45 °FPartly sunny.6 mph71%30.09 "Hg4 mi
11:00 AM43 °FPartly sunny.6 mph76%30.09 "Hg4 mi
10:30 AM41 °FPartly sunny.6 mph81%30.09 "Hg4 mi
10:00 AM41 °FFog.No wind81%30.09 "Hg3 mi
9:30 AM39 °FFog.1 mph87%30.09 "Hg2 mi
8:30 AM36 °FFog.6 mph93%30.12 "Hg2 mi
8:00 AM37 °FFog.7 mph93%30.12 "Hg3 mi
7:30 AM39 °FPartly cloudy.5 mph87%30.12 "Hg5 mi
7:00 AM39 °FPassing clouds.6 mph87%30.12 "Hg5 mi
5:30 AM39 °FPassing clouds.5 mph87%30.12 "Hg4 mi
5:00 AM39 °FPassing clouds.5 mph87%30.15 "Hg4 mi
4:30 AM39 °FPassing clouds.5 mph87%30.15 "Hg4 mi
4:00 AM37 °FPassing clouds.5 mph93%30.15 "Hg4 mi
3:30 AM37 °FPassing clouds.5 mph93%30.15 "Hg4 mi
3:00 AM37 °FPassing clouds.5 mph93%30.18 "Hg4 mi
2:30 AM37 °FPassing clouds.6 mph93%30.18 "Hg4 mi
2:00 AM36 °FFog.6 mph93%30.18 "Hg3 mi
1:00 AM34 °FFog.8 mph93%30.18 "Hg3 mi
12:30 AM34 °FFog.6 mph93%30.18 "Hg3 mi
12:00 AM34 °FPassing clouds.3 mph93%30.18 "Hg5 mi
11:30 PM
Sat, Feb 13
34 °FPassing clouds.3 mph93%30.18 "HgN/A
11:00 PM34 °FPassing clouds.2 mph93%30.18 "HgN/A
Weather by CustomWeather, © 2016

See weather overviewHow to use our weather pages